Погода в Емельяновке

Россия / Оренбургская область     53°14′04″N   53°43′54″E
темп.,
°C
ветер,
м/с
пор.,
м/с
влажн.,
%
обл.,
%
осадки,
мм/ч
давл.,
гПа
погр.,
м
11 мая, вт
вт1123:00+18всв3348100 0.0 102018
02:00+17вюв495555 0.0 1020189
05:00+15вюв226075 0.0 102212
08:00+17юв47565 0.0 1024284
11:00+20ююв444796 0.0 1025887
14:00+23ююв343975 0.0 10252010
17:00+23юв4536100 0.0 10252494
20:00+20вюв3350100 0.0 102655
12 мая, ср
ср1223:00+17ююв115836 0.0 102711
02:00+16св115995 0.0 102711
05:00+16в2259100 0.0 102721
08:00+18юв245622 0.0 1028178
11:00+21ююв453898 0.0 1028961
14:00+23ююв5531100 0.0 10281960
17:00+23юв553198 0.0 10271989
20:00+20юв354599 0.0 102785
13 мая, чт
чт1323:00+17юв2249100 0.0 102813
02:00+15в3353100 0.0 102824
05:00+14в465731 0.0 102876
08:00+17вюв485561 0.0 1028249
11:00+22юв56365 0.0 1028926
14:00+25ююв45306 0.0 10271754
17:00+25ююв45282 0.0 10261756
20:00+23ююв22420 0.0 102623
14 мая, пт
пт1423:00+18юв224668 0.0 102613
02:00+17юв224936 0.0 102614
05:00+16юв2251100 0.0 102714
08:00+18юв265159 0.0 1027178
11:00+24ю46375 0.0 1027657
14:00+27ююз552963 0.0 10261848
17:00+27ююз452720 0.0 10262133
20:00+24ю3342100 0.0 102525
15 мая, сб
сб1523:00+20ю22465 0.0 102512
02:00+18ююв22492 0.0 102511
05:00+17ююв22490 0.0 102511
08:00+20юв22453 0.0 1025112
11:00+25ю34330 0.0 1024685
14:00+28ююз44270 0.0 10232255
17:00+28ююз33250 0.0 10222446
20:00+25ююз12370 0.0 102111